DW5686 Weather Reports


Display with metric or nautical units.
time (UTC)temp
F
wind
direction
speed
MPH
gust
MPH
rain 1hr
in
rain 24hr
in
rain mn
in
humidity
%
barometer
mb
20260902191504 97 26 1.0 8.0 0.00 0.00 0.00 42 1017.8
20260902191003 96 19 3.0 10.0 0.00 0.00 0.00 42 1017.9
20260902190502 96 24 2.0 10.0 0.00 0.00 0.00 46 1017.8
20260902190002 96 30 4.0 10.0 0.00 0.00 0.00 42 1017.9
20260902185503 96 30 5.0 10.0 0.00 0.00 0.00 44 1017.9
20260902185003 95 12 5.0 13.0 0.00 0.00 0.00 45 1018.0
20260902184503 96 26 8.0 13.0 0.00 0.00 0.00 42 1018.0
20260902184024 97 144 2.0 6.0 0.00 0.00 0.00 45 1018.0
20260902183545 96 2 2.0 6.0 0.00 0.00 0.00 47 1018.1
20260902183003 96 284 2.0 4.0 0.00 0.00 0.00 44 1018.3
20260902182504 96 359 1.0 6.0 0.00 0.00 0.00 45 1018.2
20260902182004 97 356 2.0 6.0 0.00 0.00 0.00 45 1018.2
20260902181525 96 58 1.0 6.0 0.00 0.00 0.00 43 1018.2
20260902181004 94 6 2.0 9.0 0.00 0.00 0.00 44 1018.2
20260902180525 94 57 2.0 11.0 0.00 0.00 0.00 50 1018.3
20260902180005 93 6 5.0 13.0 0.00 0.00 0.00 47 1018.4
20260902175504 95 39 7.0 13.0 0.00 0.00 0.00 44 1018.3
20260902175003 94 33 6.0 13.0 0.00 0.00 0.00 47 1018.3
20260902174504 94 17 5.0 11.0 0.00 0.00 0.00 47 1018.3
20260902174024 95 13 4.0 9.0 0.00 0.00 0.00 48 1018.4
20260902173504 94 196 2.0 7.0 0.00 0.00 0.00 48 1018.5
20260902173004 94 337 2.0 11.0 0.00 0.00 0.00 45 1018.6
20260902172502 94 6 6.0 11.0 0.00 0.00 0.00 45 1018.7
20260902172024 94 36 3.0 6.0 0.00 0.00 0.00 45 1018.6
20260902171524 95 249 2.0 5.0 0.00 0.00 0.00 45 1018.7
20260902171003 94 288 2.0 7.0 0.00 0.00 0.00 52 1018.7
20260902170503 94 10 4.0 11.0 0.00 0.00 0.00 49 1018.7
20260902170023 93 37 3.0 11.0 0.00 0.00 0.00 50 1018.8
20260902165503 93 16 6.0 12.0 0.00 0.00 0.00 48 1019.0
20260902165004 93 20 9.0 12.0 0.00 0.00 0.00 48 1019.0
20260902164524 93 357 3.0 10.0 0.00 0.00 0.00 50 1019.0
20260902164003 93 32 2.0 10.0 0.00 0.00 0.00 51 1019.1
20260902163504 92 43 4.0 12.0 0.00 0.00 0.00 49 1019.0
20260902163002 93 41 6.0 12.0 0.00 0.00 0.00 50 1019.1
20260902162504 93 23 5.0 11.0 0.00 0.00 0.00 50 1019.1
20260902162004 94 16 4.0 10.0 0.00 0.00 0.00 51 1019.1
20260902161504 93 23 3.0 10.0 0.00 0.00 0.00 52 1019.1
20260902161003 92 91 1.0 7.0 0.00 0.00 0.00 51 1019.2
20260902160503 92 314 2.0 6.0 0.00 0.00 0.00 52 1019.3
20260902160004 92 2 3.0 6.0 0.00 0.00 0.00 52 1019.2
20260902155504 92 290 2.0 5.0 0.00 0.00 0.00 55 1019.2
20260902155004 91 15 3.0 6.0 0.00 0.00 0.00 55 1019.2
20260902154504 91 317 2.0 7.0 0.00 0.00 0.00 55 1019.2
20260902154024 91 302 1.0 7.0 0.00 0.00 0.00 56 1019.3
20260902153525 91 33 4.0 7.0 0.00 0.00 0.00 55 1019.4
20260902153003 91 37 4.0 11.0 0.00 0.00 0.00 55 1019.5
20260902152503 91 30 4.0 11.0 0.00 0.00 0.00 53 1019.4
20260902152024 91 17 4.0 7.0 0.00 0.00 0.00 55 1019.4
20260902151503 92 50 1.0 10.0 0.00 0.00 0.00 51 1019.3
20260902151004 91 38 5.0 10.0 0.00 0.00 0.00 53 1019.2
20260902150525 91 13 3.0 7.0 0.00 0.00 0.00 57 1019.3
20260902150003 90 22 4.0 7.0 0.00 0.00 0.00 56 1019.3
20260902145525 89 43 4.0 7.0 0.00 0.00 0.00 57 1019.4
20260902145003 89 36 1.0 7.0 0.00 0.00 0.00 62 1019.4
20260902144504 88 347 2.0 7.0 0.00 0.00 0.00 61 1019.3
20260902144024 88 2 3.0 5.0 0.00 0.00 0.00 60 1019.4
20260902143504 88 5 2.0 7.0 0.00 0.00 0.00 61 1019.5
20260902143003 89 8 2.0 7.0 0.00 0.00 0.00 62 1019.4
20260902142504 88 10 4.0 7.0 0.00 0.00 0.00 65 1019.4
20260902142004 88 356 2.0 6.0 0.00 0.00 0.00 65 1019.4
20260902141504 87 354 3.0 7.0 0.00 0.00 0.00 63 1019.3
20260902141003 87 39 2.0 7.0 0.00 0.00 0.00 67 1019.3
20260902140504 87 30 3.0 9.0 0.00 0.00 0.00 63 1019.2
20260902140003 86 38 4.0 9.0 0.00 0.00 0.00 64 1019.3
20260902135504 86 31 3.0 7.0 0.00 0.00 0.00 64 1019.2
20260902135025 86 19 4.0 7.0 0.00 0.00 0.00 65 1019.2
20260902134525 86 37 1.0 7.0 0.00 0.00 0.00 69 1019.3
20260902134003 85 31 3.0 7.0 0.00 0.00 0.00 69 1019.2
20260902133503 84 31 5.0 7.0 0.00 0.00 0.00 67 1019.3
20260902133024 84 23 4.0 7.0 0.00 0.00 0.00 68 1019.4
20260902132525 84 32 3.0 7.0 0.00 0.00 0.00 68 1019.3
20260902132003 84 14 5.0 7.0 0.00 0.00 0.00 68 1019.4
20260902131503 83 26 3.0 6.0 0.00 0.00 0.00 70 1019.4
20260902131003 83 14 4.0 6.0 0.00 0.00 0.00 71 1019.4
20260902130503 82 11 3.0 6.0 0.00 0.00 0.00 74 1019.4
20260902130024 82 356 2.0 4.0 0.00 0.00 0.00 72 1019.4
20260902125503 81 356 2.0 3.0 0.00 0.00 0.00 78 1019.5
20260902125024 80 356 1.0 2.0 0.00 0.00 0.00 79 1019.5
20260902124525 79 356 0.0 2.0 0.00 0.00 0.00 84 1019.3
20260902124004 78 0 0.0 2.0 0.00 0.00 0.00 86 1019.3
20260902123525 78 0 0.0 2.0 0.00 0.00 0.00 87 1019.3
20260902123003 77 356 0.0 1.0 0.00 0.00 0.00 87 1019.3
20260902122524 77 0 0.0 1.0 0.00 0.00 0.00 89 1019.4
20260902122003 76 356 0.0 2.0 0.00 0.00 0.00 89 1019.4
20260902121524 76 356 1.0 2.0 0.00 0.00 0.00 91 1019.2
20260902121004 76 356 0.0 2.0 0.00 0.00 0.00 91 1019.3
20260902120503 75 356 1.0 2.0 0.00 0.00 0.00 91 1019.3
20260902120003 75 356 1.0 2.0 0.00 0.00 0.00 92 1019.3
20260902115504 74 0 0.0 2.0 0.00 0.00 0.00 92 1019.2
20260902115003 74 356 1.0 2.0 0.00 0.00 0.00 92 1019.2
20260902114504 74 0 0.0 0.0 0.00 0.00 0.00 92 1019.1
20260902114003 74 0 0.0 1.0 0.00 0.00 0.00 92 1019.2
20260902113503 74 0 0.0 2.0 0.00 0.00 0.00 92 1019.2
20260902113003 74 0 0.0 2.0 0.00 0.00 0.00 92 1019.1
20260902112525 73 356 0.0 2.0 0.00 0.00 0.00 92 1019.0
20260902112003 73 356 0.0 2.0 0.00 0.00 0.00 92 1019.0
20260902111503 73 0 0.0 2.0 0.00 0.00 0.00 92 1018.9
20260902111024 73 356 0.0 2.0 0.00 0.00 0.00 92 1018.9
20260902110504 73 356 1.0 2.0 0.00 0.00 0.00 92 1018.9
20260902110004 73 356 0.0 1.0 0.00 0.00 0.00 92 1019.0
20260902105503 73 0 0.0 2.0 0.00 0.00 0.00 92 1019.0
20260902105003 73 356 0.0 2.0 0.00 0.00 0.00 92 1019.0
20260902104503 74 356 0.0 2.0 0.00 0.00 0.00 92 1019.0
20260902104004 74 356 0.0 2.0 0.00 0.00 0.00 92 1019.1
20260902103503 73 0 0.0 1.0 0.00 0.00 0.00 92 1018.9
20260902103003 73 356 0.0 2.0 0.00 0.00 0.00 92 1019.0
20260902102503 74 0 0.0 2.0 0.00 0.00 0.00 92 1018.8
20260902102004 74 356 1.0 2.0 0.00 0.00 0.00 92 1018.7
20260902101503 74 356 0.0 2.0 0.00 0.00 0.00 92 1018.8
20260902101003 74 356 0.0 2.0 0.00 0.00 0.00 92 1018.7
20260902100503 74 356 1.0 2.0 0.00 0.00 0.00 92 1018.5
20260902100004 74 356 1.0 2.0 0.00 0.00 0.00 92 1018.5
20260902095504 74 356 2.0 2.0 0.00 0.00 0.00 92 1018.5
20260902095003 74 356 1.0 2.0 0.00 0.00 0.00 92 1018.5
20260902094524 74 356 2.0 2.0 0.00 0.00 0.00 92 1018.5
20260902094004 74 0 0.0 0.0 0.00 0.00 0.00 92 1018.4
20260902093525 74 0 0.0 0.0 0.00 0.00 0.00 92 1018.4
20260902093004 74 0 0.0 0.0 0.00 0.00 0.00 92 1018.4
20260902092503 74 0 0.0 2.0 0.00 0.00 0.00 92 1018.4
20260902092003 74 0 0.0 2.0 0.00 0.00 0.00 92 1018.5
20260902091503 74 356 1.0 2.0 0.00 0.00 0.00 92 1018.3
20260902091003 74 356 1.0 2.0 0.00 0.00 0.00 92 1018.4
20260902090504 74 356 1.0 2.0 0.00 0.00 0.00 92 1018.2
20260902090003 74 0 0.0 0.0 0.00 0.00 0.00 92 1018.2
20260902085503 74 0 0.0 0.0 0.00 0.00 0.00 92 1018.1
20260902085004 74 0 0.0 1.0 0.00 0.00 0.00 92 1018.1
20260902084503 74 0 0.0 1.0 0.00 0.00 0.00 92 1018.1
20260902084004 74 356 0.0 1.0 0.00 0.00 0.00 92 1018.2
20260902083503 74 0 0.0 2.0 0.00 0.00 0.00 92 1018.0
20260902083003 75 356 0.0 2.0 0.00 0.00 0.00 92 1018.1
20260902082504 75 356 1.0 2.0 0.00 0.00 0.00 92 1018.1
20260902082003 75 356 1.0 2.0 0.00 0.00 0.00 92 1018.1
20260902081503 75 0 0.0 1.0 0.00 0.00 0.00 92 1018.0
20260902081024 75 0 0.0 1.0 0.00 0.00 0.00 92 1017.8
20260902080503 75 0 0.0 1.0 0.00 0.00 0.00 92 1017.9
20260902080005 75 0 0.0 2.0 0.00 0.00 0.00 91 1018.0
20260902075504 75 356 1.0 2.0 0.00 0.00 0.00 92 1018.0
20260902075004 75 356 1.0 2.0 0.00 0.00 0.00 92 1017.8
20260902074504 75 356 0.0 1.0 0.00 0.00 0.00 91 1017.9
20260902074003 75 0 0.0 0.0 0.00 0.00 0.00 91 1017.9
20260902073504 75 0 0.0 0.0 0.00 0.00 0.00 91 1017.9
20260902073004 75 0 0.0 0.0 0.00 0.00 0.00 91 1017.8
20260902072504 75 0 0.0 0.0 0.00 0.00 0.00 91 1017.9
20260902072004 75 0 0.0 0.0 0.00 0.00 0.00 91 1018.0
20260902071503 75 0 0.0 0.0 0.00 0.00 0.00 91 1017.9
20260902071002 75 0 0.0 0.0 0.00 0.00 0.00 89 1018.0
20260902070503 75 0 0.0 0.0 0.00 0.00 0.00 89 1017.9
20260902070002 75 0 0.0 1.0 0.00 0.00 0.00 89 1017.9
20260902065502 76 0 0.0 1.0 0.00 0.00 0.00 89 1018.0
20260902065023 76 356 0.0 1.0 0.00 0.00 0.00 89 1018.0
20260902064502 76 0 0.0 1.0 0.00 0.00 0.00 88 1018.0
20260902064023 76 0 0.0 1.0 0.00 0.00 0.00 88 1018.0
20260902063503 76 356 0.0 2.0 0.00 0.00 0.00 88 1018.0
20260902063003 76 356 0.0 2.0 0.00 0.00 0.00 88 1018.1
20260902062523 76 0 0.0 0.0 0.00 0.00 0.00 88 1018.0
20260902062002 76 0 0.0 1.0 0.00 0.00 0.00 88 1018.1
20260902061523 76 356 0.0 1.0 0.00 0.00 0.00 87 1018.1
20260902061003 76 0 0.0 0.0 0.00 0.00 0.00 87 1018.1
20260902060502 76 0 0.0 0.0 0.00 0.00 0.00 87 1018.0
20260902060003 76 0 0.0 0.0 0.00 0.00 0.00 87 1018.0
20260902055502 76 0 0.0 0.0 0.00 0.00 0.00 87 1018.0
20260902055002 76 0 0.0 0.0 0.00 0.00 0.00 87 1018.1
20260902054502 76 0 0.0 0.0 0.00 0.00 0.00 86 1018.0
20260902054003 76 0 0.0 0.0 0.00 0.00 0.00 86 1018.0
20260902053502 77 0 0.0 0.0 0.00 0.00 0.00 86 1017.9
20260902053003 77 0 0.0 0.0 0.00 0.00 0.00 84 1017.9
20260902052503 77 0 0.0 1.0 0.00 0.00 0.00 84 1018.0
20260902052023 77 356 0.0 2.0 0.00 0.00 0.00 84 1018.0
20260902051502 77 356 1.0 2.0 0.00 0.00 0.00 84 1018.0
20260902051002 77 356 0.0 2.0 0.00 0.00 0.00 84 1017.9
20260902050502 77 356 1.0 2.0 0.00 0.00 0.00 86 1017.9
20260902050004 77 356 0.0 1.0 0.00 0.00 0.00 86 1017.8
20260902045503 76 0 0.0 0.0 0.00 0.00 0.00 86 1017.8
20260902045002 77 0 0.0 0.0 0.00 0.00 0.00 86 1017.8
20260902044503 77 0 0.0 0.0 0.00 0.00 0.00 86 1017.7
20260902044003 77 0 0.0 0.0 0.00 0.00 0.00 84 1017.8
20260902043502 77 0 0.0 0.0 0.00 0.00 0.00 84 1017.9
20260902043003 77 0 0.0 1.0 0.00 0.00 0.00 84 1017.9
20260902042503 77 0 0.0 1.0 0.00 0.00 0.00 84 1017.9
20260902042003 77 356 0.0 1.0 0.00 0.00 0.00 84 1017.9
20260902041502 77 0 0.0 0.0 0.00 0.00 0.00 84 1017.9
20260902041002 77 0 0.0 0.0 0.00 0.00 0.00 83 1017.8
20260902040504 78 0 0.0 0.0 0.00 0.00 0.00 83 1017.7
20260902040003 78 0 0.0 0.0 0.00 0.00 0.00 83 1017.8
20260902035502 78 0 0.0 0.0 0.00 0.00 0.00 83 1017.8
20260902035002 78 0 0.0 0.0 0.00 0.00 0.00 82 1017.9
20260902034524 78 0 0.0 0.0 0.00 0.00 0.00 82 1017.8
20260902034003 78 0 0.0 0.0 0.00 0.00 0.00 82 1017.9
20260902033502 78 0 0.0 1.0 0.00 0.00 0.00 82 1017.8
20260902033002 78 0 0.0 1.0 0.00 0.00 0.00 81 1017.8
20260902032523 78 356 0.0 1.0 0.00 0.00 0.00 81 1017.9
20260902032002 78 0 0.0 1.0 0.00 0.00 0.00 81 1017.9
20260902031502 79 356 0.0 1.0 0.00 0.00 0.00 81 1018.0
20260902031024 79 0 0.0 1.0 0.00 0.00 0.00 79 1017.9
20260902030502 79 0 0.0 1.0 0.00 0.00 0.00 79 1017.9
20260902030003 78 0 0.0 0.0 0.00 0.00 0.00 79 1017.8
20260902025502 79 0 0.0 0.0 0.00 0.00 0.00 78 1017.7
20260902025023 79 0 0.0 0.0 0.00 0.00 0.00 78 1017.8
20260902024503 79 0 0.0 0.0 0.00 0.00 0.00 78 1017.7
20260902024023 79 0 0.0 1.0 0.00 0.00 0.00 77 1017.7
20260902023502 80 0 0.0 1.0 0.00 0.00 0.00 77 1017.8
20260902023002 80 356 1.0 2.0 0.00 0.00 0.00 76 1017.7
20260902022502 80 356 0.0 2.0 0.00 0.00 0.00 76 1017.8
20260902022003 80 0 0.0 1.0 0.00 0.00 0.00 76 1017.8
20260902021503 80 356 0.0 1.0 0.00 0.00 0.00 75 1017.7
20260902021002 80 0 0.0 0.0 0.00 0.00 0.00 75 1017.8
20260902020502 80 0 0.0 0.0 0.00 0.00 0.00 75 1017.7
20260902020003 80 0 0.0 0.0 0.00 0.00 0.00 74 1017.7
20260902015503 81 0 0.0 0.0 0.00 0.00 0.00 72 1017.7
20260902015002 81 0 0.0 0.0 0.00 0.00 0.00 72 1017.7
20260902014523 81 0 0.0 0.0 0.00 0.00 0.00 71 1017.6
20260902014023 81 0 0.0 0.0 0.00 0.00 0.00 71 1017.7
20260902013502 81 0 0.0 1.0 0.00 0.00 0.00 71 1017.6
20260902013002 81 0 0.0 1.0 0.00 0.00 0.00 71 1017.5
20260902012502 81 0 0.0 0.0 0.00 0.00 0.00 71 1017.6
20260902012002 82 0 0.0 0.0 0.00 0.00 0.00 71 1017.5
20260902011502 82 0 0.0 0.0 0.00 0.00 0.00 70 1017.6
20260902011003 82 0 0.0 2.0 0.00 0.00 0.00 70 1017.5
20260902010502 82 0 0.0 2.0 0.00 0.00 0.00 69 1017.3
20260902010023 82 0 0.0 0.0 0.00 0.00 0.00 69 1017.3
20260902005503 82 0 0.0 0.0 0.00 0.00 0.00 69 1017.4
20260902005003 82 0 0.0 0.0 0.00 0.00 0.00 69 1017.3
20260902004524 83 0 0.0 0.0 0.00 0.00 0.00 68 1017.2
20260902004003 83 0 0.0 1.0 0.00 0.00 0.00 68 1017.2
20260902003502 83 356 0.0 2.0 0.00 0.00 0.00 67 1017.1
20260902003002 84 356 1.0 2.0 0.00 0.00 0.00 67 1017.2
20260902002504 83 0 0.0 0.0 0.00 0.00 0.00 65 1017.2
20260902002003 84 0 0.0 0.0 0.00 0.00 0.00 64 1017.2
20260902001504 84 0 0.0 0.0 0.00 0.00 0.00 65 1017.1
20260902001003 84 0 0.0 0.0 0.00 0.00 0.00 64 1017.1
20260902000502 84 0 0.0 0.0 0.00 0.00 0.00 63 1017.1
20260902000003 84 0 0.0 0.0 0.00 0.00 0.00 63 1017.0
20260901235503 85 0 0.0 0.0 0.00 0.00 0.00 63 1017.0
20260901235002 85 0 0.0 0.0 0.00 0.00 0.00 61 1017.0
20260901234504 86 0 0.0 0.0 0.00 0.00 0.00 61 1017.0
20260901234004 86 0 0.0 0.0 0.00 0.00 0.00 61 1017.0
20260901233502 86 0 0.0 0.0 0.00 0.00 0.00 60 1017.1
20260901233003 86 0 0.0 0.0 0.00 0.00 0.00 60 1017.1
20260901232504 86 0 0.0 0.0 0.00 0.00 0.00 59 1017.1
20260901232004 87 0 0.0 0.0 0.00 0.00 0.00 60 1017.1
20260901231503 88 0 0.0 1.0 0.00 0.00 0.00 57 1017.1
20260901231003 88 0 0.0 1.0 0.00 0.00 0.00 56 1017.1
20260901230502 88 356 0.0 1.0 0.00 0.00 0.00 55 1017.1
20260901230023 88 356 0.0 2.0 0.00 0.00 0.00 58 1017.1
20260901225523 89 356 0.0 2.0 0.00 0.00 0.00 56 1017.2
20260901225002 89 0 0.0 4.0 0.00 0.00 0.00 52 1017.1
20260901224503 90 356 1.0 4.0 0.00 0.00 0.00 52 1017.2
20260901224002 90 356 2.0 3.0 0.00 0.00 0.00 52 1017.2
20260901223525 91 356 1.0 2.0 0.00 0.00 0.00 50 1017.3
20260901223004 91 356 0.0 5.0 0.00 0.00 0.00 50 1017.3
20260901222524 91 357 2.0 5.0 0.00 0.00 0.00 48 1017.2
20260901222003 91 3 2.0 5.0 0.00 0.00 0.00 49 1017.2
20260901221503 91 356 0.0 7.0 0.00 0.00 0.00 48 1017.2
20260901221004 91 12 5.0 8.0 0.00 0.00 0.00 48 1017.3
20260901220503 91 353 2.0 8.0 0.00 0.00 0.00 47 1017.3
20260901220004 92 38 1.0 7.0 0.00 0.00 0.00 48 1017.2
20260901215503 92 18 2.0 10.0 0.00 0.00 0.00 48 1017.2
20260901215003 92 16 5.0 10.0 0.00 0.00 0.00 47 1017.2
20260901214503 92 24 1.0 7.0 0.00 0.00 0.00 46 1017.2
20260901214004 92 22 3.0 7.0 0.00 0.00 0.00 45 1017.1
20260901213503 93 32 3.0 6.0 0.00 0.00 0.00 47 1017.2
20260901213003 93 32 2.0 5.0 0.00 0.00 0.00 45 1017.2
20260901212503 93 19 1.0 7.0 0.00 0.00 0.00 43 1017.2
20260901212024 93 13 2.0 7.0 0.00 0.00 0.00 44 1017.2
20260901211503 94 297 1.0 7.0 0.00 0.00 0.00 43 1017.2
20260901211003 94 350 3.0 7.0 0.00 0.00 0.00 41 1017.3
20260901210503 94 31 4.0 7.0 0.00 0.00 0.00 44 1017.1
20260901210002 94 274 1.0 8.0 0.00 0.00 0.00 43 1017.2
20260901205503 94 360 2.0 8.0 0.00 0.00 0.00 41 1017.3
20260901205003 94 18 6.0 8.0 0.00 0.00 0.00 41 1017.3
20260901204502 94 5 4.0 7.0 0.00 0.00 0.00 41 1017.3
20260901204023 95 339 3.0 7.0 0.00 0.00 0.00 41 1017.4
20260901203504 94 19 4.0 9.0 0.00 0.00 0.00 43 1017.4
20260901203003 94 24 4.0 12.0 0.00 0.00 0.00 42 1017.5
20260901202524 94 351 2.0 12.0 0.00 0.00 0.00 41 1017.4
20260901202003 95 8 1.0 10.0 0.00 0.00 0.00 44 1017.3
20260901201502 95 345 3.0 11.0 0.00 0.00 0.00 44 1017.4
20260901201004 95 6 5.0 11.0 0.00 0.00 0.00 46 1017.4
20260901200504 94 8 3.0 7.0 0.00 0.00 0.00 45 1017.4
20260901200002 94 169 2.0 5.0 0.00 0.00 0.00 45 1017.5
20260901195524 94 25 3.0 6.0 0.00 0.00 0.00 44 1017.5
20260901195004 93 351 2.0 6.0 0.00 0.00 0.00 47 1017.7
20260901194502 92 4 1.0 6.0 0.00 0.00 0.00 48 1017.8
20260901194024 91 39 3.0 6.0 0.00 0.00 0.00 45 1017.9
20260901193504 92 354 1.0 6.0 0.00 0.00 0.00 48 1017.9
20260901193003 92 23 3.0 5.0 0.00 0.00 0.00 49 1017.9
20260901192524 92 27 3.0 7.0 0.00 0.00 0.00 46 1018.0
20260901192024 92 20 5.0 8.0 0.00 0.00 0.00 48 1018.1